#timestamp,LO_Frequency,Hit,StdDev 
1545580815.2,286047002.6,N
1545580835.1,286047000.4,N
1545580836.0,286047000.4,N
1545580855.8,286047001.0,N
1545580875.7,286047000.0,N
1545580895.5,286046999.1,N
1545580915.3,286046998.8,N
1545580935.2,286047001.0,N
1545580955.9,286047001.0,N
1545580975.7,286047000.3,N
1545580995.6,286047000.4,N
1545581015.4,286046999.9,N
1545581035.3,286047002.4,N
1545581055.1,286047000.2,N
1545581056.0,286047000.2,N
1545581075.8,286047002.2,N
1545581095.7,286047002.5,N
1545581115.5,286047002.8,N
1545581135.3,286046999.7,N
1545581155.2,286046999.7,N
1545581175.0,286047001.8,N
1545581175.9,286047001.8,N
1545581195.8,286047002.4,N
1545581215.6,286047000.4,N
1545581235.4,286046999.8,N
1545581255.3,286046999.8,N
1545581275.1,286047001.7,N
1545581276.0,286047001.7,N
1545581295.8,286047003.8,Y
1545581315.7,286047002.0,P
1545581335.5,286047001.8,P
1545581355.4,286047001.7,P
1545581375.2,286047000.2,N
1545581395.0,286047000.0,N
1545581395.9,286047000.0,N
1545581415.8,286047002.7,Y
1545581435.6,286047001.1,P
1545581455.4,286046998.5,P
1545581475.3,286046998.4,N
1545581495.1,286046998.2,N
1545581515.9,286046998.8,N
1545581535.7,286046999.0,N
1545581555.5,286046998.6,N
1545581575.4,286046999.9,N
1545581595.2,286047000.3,N
1545581615.0,286047002.5,N
1545581615.9,286047002.5,N
1545581635.8,286047004.3,N
1545581655.6,286047001.9,N
1545581675.5,286047000.2,N
1545581695.3,286047000.7,N
1545581715.1,286047000.2,N
1545581735.9,286047000.9,N
1545581755.7,286047000.6,N
1545581775.5,286047001.0,N
1545581795.4,286046998.2,N
1545581815.2,286047001.2,N
1545581835.1,286046998.4,N
1545581866.0,286047000.8,E
1545581875.9,286047000.7,N
1545581895.7,286046999.2,P
1545581915.6,286046998.0,N
1545581935.4,286046997.9,N
1545581955.2,286046997.7,N
1545581975.1,286046997.2,N
1545581976.0,286046997.2,N
1545581995.8,286046998.1,N
1545582015.7,286047000.8,N
1545582035.5,286046998.1,N
1545582055.3,286046998.5,N
1545582075.2,286047000.8,N
1545582095.0,286047001.2,N
1545582095.9,286047001.2,N
1545582115.7,286046999.1,N
1545582135.6,286046994.9,Y
1545582155.4,286046997.1,P
1545582175.3,286046997.0,P
1545582195.1,286046997.2,P
1545582196.0,286046997.2,Y
1545582215.8,286046998.3,P
1545582235.7,286047000.7,N
1545582255.5,286046999.7,N
1545582275.3,286046999.8,N
1545582295.2,286047000.0,N
1545582315.0,286047000.0,N
1545582315.9,286047000.0,N
1545582335.8,286047000.3,N
1545582355.6,286046998.3,N
1545582375.4,286046998.8,N
1545582395.3,286046996.8,Y
1545582415.1,286046997.1,P
1545582435.8,286047000.8,N
1545582455.7,286046998.3,N
1545582475.5,286047001.7,N
1545582495.4,286047003.8,N
1545582515.2,286047005.7,N
1545582535.0,286047006.0,N
1545582535.9,286047006.0,N
1545582555.8,286047005.9,N
1545582575.6,286047005.6,N
1545582595.4,286047004.0,N
1545582615.3,286047002.8,N
1545582635.1,286046999.8,N
1545582655.9,286047002.2,N
1545582675.7,286047002.8,N
1545582695.5,286047002.8,N
1545582715.4,286047002.1,N
1545582735.2,286046999.7,N
1545582755.0,286047002.1,N
1545582756.0,286047002.1,N
1545582775.8,286047000.6,N
1545582795.6,286047000.9,N
1545582815.5,286046999.9,N
1545582835.3,286046999.9,N
1545582855.1,286046998.8,N
1545582875.9,286046998.1,N
1545582895.7,286046996.5,N
1545582915.6,286046996.5,N
1545582935.4,286046999.0,N
1545582955.2,286046998.2,N
1545582975.1,286047001.1,N
1545582976.0,286047001.1,N
1545582995.8,286046999.8,N
1545583015.6,286047002.5,N
1545583035.5,286047001.9,N
1545583055.3,286047002.7,N
1545583075.2,286046999.8,N
1545583095.9,286046999.8,N
1545583115.7,286046999.7,N
1545583135.6,286047002.8,N
1545583155.4,286046999.9,N
1545583175.2,286047000.2,N
1545583195.1,286047002.0,N
1545583196.0,286047002.0,N
1545583215.8,286047000.8,N
1545583235.7,286047000.4,N
1545583255.5,286046999.8,N
1545583275.3,286047001.4,N
1545583295.2,286047001.8,N
1545583315.9,286047004.0,N
1545583335.7,286047002.6,N
1545583355.6,286047001.0,N
1545583375.4,286047000.4,N
1545583395.3,286047000.8,N
1545583415.1,286047000.8,N
1545583416.0,286047000.8,N
1545583435.8,286046999.8,N
1545583455.7,286046998.4,N
1545583475.5,286047000.8,N
1545583495.3,286047000.5,N
1545583515.2,286047000.0,N
1545583535.0,286047000.8,N
1545583535.9,286047000.8,N
1545583555.8,286047000.5,N
1545583575.6,286046998.2,N
1545583595.4,286046998.1,N
1545583615.3,286047000.4,N
1545583635.1,286047002.4,N
1545583655.8,286046998.5,N
1545583675.7,286046998.1,N
1545583695.5,286047001.9,N
1545583715.4,286047001.9,N
1545583735.2,286047002.8,N
1545583755.0,286047000.2,N
1545583755.9,286047000.2,N
1545583775.8,286047002.8,N
1545583795.6,286047002.3,N
1545583815.5,286047000.1,N
1545583835.3,286046998.2,N
1545583855.1,286046998.5,N
1545583875.9,286046999.4,N
1545583895.7,286046998.5,N
1545583915.5,286046998.5,N
1545583935.4,286047000.8,N
1545583955.2,286047001.2,N
1545583975.1,286046998.7,N
1545583976.0,286046998.7,N
1545583995.8,286046998.9,N
1545584015.6,286046999.1,N
1545584035.5,286046998.7,N
1545584055.3,286046999.3,N
1545584075.2,286046998.4,N
1545584095.9,286046998.7,N
1545584115.7,286046998.3,N
1545584135.6,286047000.9,N
1545584155.4,286047000.3,N
1545584175.2,286047001.6,N
1545584195.1,286047002.0,N
1545584196.0,286047002.0,N
1545584215.8,286047004.3,N
1545584235.7,286047003.9,N
1545584255.5,286047001.3,N
1545584275.3,286047001.7,N
1545584295.2,286046999.8,N
1545584315.0,286047002.8,N
1545584315.9,286047002.8,N
1545584335.8,286047002.0,N
1545584355.6,286047001.4,N
1545584375.4,286047001.9,N
1545584395.3,286047000.5,N
